Погода в Усть-Кумире

Россия / Республика Алтай     51°01′50″N   84°17′15″E
темп.,
°C
ветер,
м/с
пор.,
м/с
влажн.,
%
обл.,
%
осадки,
мм/ч
давл.,
гПа
погр.,
м
4 марта, чт
чт401:00−19ю239170 0.0 103034
04:00−20ю33910 0.0 103134
07:00−20ю23890 0.0 103131
10:00−15ю248440 0.0 1030147
13:00−8ю347661 0.0 1028434
16:00−6ю247157 0.0 1025843
19:00−11ююв228429 0.0 102622
22:00−17ю338419 0.0 102635
5 марта, пт
пт501:00−17ю337656 0.0 102630
04:00−16ю2273100 0.0 102332
07:00−15ю238773 0.0 102142
10:00−8ююз349195 0.4 1021219
13:00−5юз398197 1.3 10231379
16:00−5юз41378100 0.3 10251677
19:00−9ююз338897 0.4 102968
22:00−12ююв339053 0.1 103172
6 марта, сб
сб601:00−15ю339269 0.1 103270
04:00−16ю339054 0.0 103170
07:00−16ю338946 0.0 103268
10:00−11ю358424 0.0 1030254
13:00−6ю377335 0.0 1027772
16:00−4ю367088 0.0 1024904
19:00−8ю238593 0.0 102433
22:00−12ю338384 0.0 102443
7 марта, вс
вс701:00−14ю337743 0.0 102438
04:00−14ю33765 0.0 102427
07:00−12ю237747 0.0 102426
10:00−7ю247889 0.0 1023114
13:00−2ююз247394 0.0 1021400
16:000ююз247190 0.0 1020828
19:00−5ю228385 0.0 102022
22:00−8ю2384100 0.0 102126
8 марта, пн
пн801:00−10ю2379100 0.0 102225
04:00−11ю337493 0.0 102125
07:00−11ю237667 0.0 102227
10:00−6ю237863 0.0 1021115
13:00−1ю247779 0.0 1019406
16:00+1ююз2778100 0.0 10191284
19:00−4ююз2292100 0.1 101934
22:00−7ю2390100 0.0 102132